TOURFACTS.DK  
Stats and Facts from Tour de France.

Tour de France 2017 starts in 35 days
  Riders   Stages   Teams   Summits   Yearly  


 
Search by year

 After:  2016 - Stage 21:   14626 starters.
  5086 different riders.
  632 teams.
  2211 stages.
  454 restdays.
  436049.60 km.
  5622 abandonnees.


Top 3
Christopher Froome89:04:48
Romain Bardet89:08:53
Nairo Quintana89:09:09
Rafal Majka209 pt.
Thomas De Gendt130 pt.
Jarlinson Pantano ..121 pt.
Peter Sagan470 pt.
Marcel Kittel228 pt.
Michael Matthews199 pt.
Adam Yates89:09:30
Louis Meintjes89:11:46
Emanuel Buchmann89:52:28
Facts from Tour de France 2016
  |   Stages.  |   Stage winners.  |   Days in yellow  |   Average speed.  |   Route.  |   Teams.  |   All riders.  |   Rookies.  |   Withdrawls.  |  

  |   GC.  |   Polka  |   Green  |   White  |   Summits. (In tour)  |   Summits. (Points)  |   Miscellaneous.  |  

Stage 2 on 03 - 07 - 2016
         Owning:    Mark Cavendish      Paul Voss      Mark Cavendish      Edward Theuns  

Pick a stage:  1 2 3 4 5 6 7 8 9 10 11 12 13 14 15 16 17 18 19 20 21
  Saint-LôCherbourg-Octeville | Dist: 182.00 km.
Cat: 4Côte de Torigny-les-VillesNORVegard Breen1 points 
Cat: 4Côte de MontabotBELJasper Stuyven1 points 
Cat: 4Côte de MontpinchonBELJasper Stuyven1 points 
Cat: 3Côte de La GlacerieBELJasper Stuyven2 points 

Average speed for all riders in stage:  41,288 km./hr.
    Place:Name:Team:Time:Km/h:
SVKPeter SaganRUSTinkoff04:20:51  +  00:00:00=41,863 
FRAJulian AlaphilippeBELEtixx - Quick Step04:20:51  +  00:00:00=41,863 
ESPAlejandro ValverdeESPMovistar Team04:20:51  +  00:00:00=41,863 
4 ENGDaniel MartinBELEtixx - Quick Step04:20:51  +  00:00:00=41,863 
5 AUSMichael MatthewsAUSORICA BikeExchange04:20:51  +  00:00:00=41,863 
6 NLDWilco KeldermanNLDTeam Lotto NL - Jumbo04:20:51  +  00:00:00=41,863 
7 FRATony GallopinBELLotto Soudal04:20:51  +  00:00:00=41,863 
8 BELGreg Van AvermaetUSABMC Racing Team04:20:51  +  00:00:00=41,863 
9 NLDBauke MollemaUSATrek – Segafredo04:20:51  +  00:00:00=41,863 
10 KENChristopher FroomeGBRSky Procycling04:20:51  +  00:00:00=41,863 
11 AUSSimon GerransAUSORICA BikeExchange04:20:51  +  00:00:00=41,863 
12 FRAPierre RollandUSATeam Cannondale Drapac04:20:51  +  00:00:00=41,863 
13 ENGAdam YatesAUSORICA BikeExchange04:20:51  +  00:00:00=41,863 
14 FRAWarren BarguilDEUTeam Giant Alpecin04:20:51  +  00:00:00=41,863 
15 ESPJoaquim RodriguezRUSTeam Katusha04:20:51  +  00:00:00=41,863 
16 ITAFabio AruKAZAstana Pro Team04:20:51  +  00:00:00=41,863 
17 COLNairo QuintanaESPMovistar Team04:20:51  +  00:00:00=41,863 
18 PRTRui CostaITALampre-Merida04:20:51  +  00:00:00=41,863 
19 USATejay Van GarderenUSABMC Racing Team04:20:51  +  00:00:00=41,863 
20 BELJurgen Van Den BroeckRUSTeam Katusha04:20:51  +  00:00:00=41,863 
21 ESPMikel Landa MeanaGBRSky Procycling04:20:51  +  00:00:00=41,863 
22 FRAArthur VichotFRAFDJ04:20:51  +  00:00:00=41,863 
23 CZERoman KreuzigerRUSTinkoff04:20:51  +  00:00:00=41,863 
24 FRARomain BardetFRAAg2r La Mondiale04:20:51  +  00:00:00=41,863 
25 NLDTom DumoulinDEUTeam Giant Alpecin04:20:51  +  00:00:00=41,863 
26 COLSergio Luis HenaoGBRSky Procycling04:20:51  +  00:00:00=41,863 
27 CHEMathias FrankCHEIAM Cycling04:21:01  +  00:00:10=41,836 
28 CHESébastien ReichenbachFRAFDJ04:21:02  +  00:00:11=41,834 
29 ITAVincenzo NibaliKAZAstana Pro Team04:21:02  +  00:00:11=41,834 
30 FRAThibaut PinotFRAFDJ04:21:02  +  00:00:11=41,834 
31 ZAFLouis MeintjesITALampre-Merida04:21:02  +  00:00:11=41,834 
32 COLJarlinson Pantano GomezCHEIAM Cycling04:21:02  +  00:00:11=41,834 
33 FRAAlexis VuillermozFRAAg2r La Mondiale04:21:06  +  00:00:15=41,823 
34 ESPLuis León SánchezKAZAstana Pro Team04:21:06  +  00:00:15=41,823 
35 USALawson CraddockUSATeam Cannondale Drapac04:21:08  +  00:00:17=41,818 
36 ESPHaimar ZubeldiaUSATrek – Segafredo04:21:08  +  00:00:17=41,818 
37 NLDTom-Jelte SlagterUSATeam Cannondale Drapac04:21:08  +  00:00:17=41,818 
38 BELSerge PauwelsZAFDimension Data04:21:08  +  00:00:17=41,818 
39 AUTPatrick KonradDEUBora-Argon 1804:21:08  +  00:00:17=41,818 
40 DEUEmanuel BuchmannDEUBora-Argon 1804:21:08  +  00:00:17=41,818 
41 ARGEduardo SepulvedaFRAFortuneo - Vital Concept04:21:08  +  00:00:17=41,818 
42 ESTTanel KangertKAZAstana Pro Team04:21:08  +  00:00:17=41,818 
44 FRARomain SicardFRADirect Energie04:21:08  +  00:00:17=41,818 
43 ESPJesus HerradaESPMovistar Team04:21:12  +  00:00:21=41,807 
45 FRACyril GautierFRAAg2r La Mondiale04:21:12  +  00:00:21=41,807 
46 WALGeraint ThomasGBRSky Procycling04:21:15  +  00:00:24=41,799 
47 ESPLuis Angel MateFRACofidis – Solutions Crédits04:21:17  +  00:00:26=41,794 
48 FRAArnold JeannessonFRACofidis – Solutions Crédits04:21:17  +  00:00:26=41,794 
49 LUXFränk SchleckUSATrek – Segafredo04:21:23  +  00:00:32=41,778 
50 SVNJan PolancITALampre-Merida04:21:26  +  00:00:35=41,770 
51 CHESteve MorabitoFRAFDJ04:21:26  +  00:00:35=41,770 
52 ESPAlberto LosadaRUSTeam Katusha04:21:26  +  00:00:35=41,770 
53 BELJan BakelantsFRAAg2r La Mondiale04:21:26  +  00:00:35=41,770 
54 ESPDaniel MorenoESPMovistar Team04:21:26  +  00:00:35=41,770 
55 ESPMikel NieveGBRSky Procycling04:21:32  +  00:00:41=41,754 
56 FRASamuel DumoulinFRAAg2r La Mondiale04:21:32  +  00:00:41=41,754 
57 FRABrice FeilluFRAFortuneo - Vital Concept04:21:32  +  00:00:41=41,754 
58 FRAFabrice JeandesbozFRADirect Energie04:21:32  +  00:00:41=41,754 
59 RUSIlnur ZakarinRUSTeam Katusha04:21:32  +  00:00:41=41,754 
60 HRVRobert KiserlovskiRUSTinkoff04:21:39  +  00:00:48=41,735 
61 ESPAlberto ContadorRUSTinkoff04:21:39  +  00:00:48=41,735 
62 FRAMickaël CherelFRAAg2r La Mondiale04:21:39  +  00:00:48=41,735 
63 NLDLaurens ten DamDEUTeam Giant Alpecin04:21:39  +  00:00:48=41,735 
64 USAPeter StetinaUSATrek – Segafredo04:21:39  +  00:00:48=41,735 
65 BRAMaximilano RichezeBELEtixx - Quick Step04:21:39  +  00:00:48=41,735 
66 BELJasper StuyvenUSATrek – Segafredo04:21:48  +  00:00:57=41,711 
67 FRASylvain ChavanelFRADirect Energie04:21:58  +  00:01:07=41,685 
68 FRABryan CoquardFRADirect Energie04:21:58  +  00:01:07=41,685 
69 FRAPierre-Luc PérichonFRAFortuneo - Vital Concept04:22:04  +  00:01:13=41,669 
70 AUTGeorg PreidlerDEUTeam Giant Alpecin04:22:04  +  00:01:13=41,669 
71 DEUSimon GeschkeDEUTeam Giant Alpecin04:22:04  +  00:01:13=41,669 
72 NOREdvald Boasson HagenZAFDimension Data04:22:13  +  00:01:22=41,645 
73 NORSondre Holst EngerCHEIAM Cycling04:22:13  +  00:01:22=41,645 
74 CHEFabian CancellaraUSATrek – Segafredo04:22:19  +  00:01:28=41,629 
75 ESPJon Izaguirre InsaustiESPMovistar Team04:22:30  +  00:01:39=41,600 
76 BELEdward TheunsUSATrek – Segafredo04:22:30  +  00:01:39=41,600 
77 BELOliver NaesenCHEIAM Cycling04:22:30  +  00:01:39=41,600 
78 CHEMichael AlbasiniAUSORICA BikeExchange04:22:30  +  00:01:39=41,600 
79 FRAAnthony RouxFRAFDJ04:22:30  +  00:01:39=41,600 
80 SVNLuka PibernikITALampre-Merida04:22:30  +  00:01:39=41,600 
81 AUSRichie PorteUSABMC Racing Team04:22:36  +  00:01:45=41,584 
82 ITADomenico PozzovivoFRAAg2r La Mondiale04:22:36  +  00:01:45=41,584 
83 BELSep VanmarckeNLDTeam Lotto NL - Jumbo04:22:36  +  00:01:45=41,584 
84 LUXBen GastauerFRAAg2r La Mondiale04:22:36  +  00:01:45=41,584 
85 NLDWout PoelsGBRSky Procycling04:22:36  +  00:01:45=41,584 
86 IMNMark CavendishZAFDimension Data04:22:36  +  00:01:45=41,584 
87 CHEReto HollensteinCHEIAM Cycling04:22:36  +  00:01:45=41,584 
88 FRAAngelo TulikFRADirect Energie04:22:42  +  00:01:51=41,568 
89 ZAFReinardt Janse Van RensburgZAFDimension Data04:22:57  +  00:02:06=41,529 
90 ITADamiano CarusoUSABMC Racing Team04:23:01  +  00:02:10=41,518 
91 NLDStef ClementCHEIAM Cycling04:23:15  +  00:02:24=41,481 
92 UKRAndriy GrivkoKAZAstana Pro Team04:23:20  +  00:02:29=41,468 
93 FRANicolas EdetFRACofidis – Solutions Crédits04:23:43  +  00:02:52=41,408 
94 ZAFDaryl ImpeyAUSORICA BikeExchange04:23:43  +  00:02:52=41,408 
95 FRAArmindo FonsecaFRAFortuneo - Vital Concept04:23:43  +  00:02:52=41,408 
96 DNKMichael ValgrenRUSTinkoff04:23:43  +  00:02:52=41,408 
97 ESPMarkel IrizarUSATrek – Segafredo04:23:43  +  00:02:52=41,408 
98 DEUPaul MartensNLDTeam Lotto NL - Jumbo04:23:43  +  00:02:52=41,408 
99 PRTNelson OliveiraESPMovistar Team04:23:43  +  00:02:52=41,408 
100 ESPGorka Izaguirre InsaustiESPMovistar Team04:23:43  +  00:02:52=41,408 
101 DNKMatti BreschelUSATeam Cannondale Drapac04:23:43  +  00:02:52=41,408 
102 DNKJakob FuglsangKAZAstana Pro Team04:23:43  +  00:02:52=41,408 
103 BLRVasil KiryienkaGBRSky Procycling04:23:43  +  00:02:52=41,408 
104 FRAMatthieu LadagnousFRAFDJ04:23:43  +  00:02:52=41,408 
105 CHEGregory RastUSATrek – Segafredo04:23:43  +  00:02:52=41,408 
106 BELJürgen RoelandtsBELLotto Soudal04:23:43  +  00:02:52=41,408 
107 FRAWilliam BonnetFRAFDJ04:23:43  +  00:02:52=41,408 
108 FRAChristophe LaporteFRACofidis – Solutions Crédits04:23:43  +  00:02:52=41,408 
109 DEUPaul VossDEUBora-Argon 1804:23:58  +  00:03:07=41,369 
110 BELJulien VermoteBELEtixx - Quick Step04:24:00  +  00:03:09=41,364 
111 LTURamunas NavardauskasUSATeam Cannondale Drapac04:24:10  +  00:03:19=41,338 
112 NLDSebastian LangeveldUSATeam Cannondale Drapac04:24:10  +  00:03:19=41,338 
113 ITAPaolo TiralongoKAZAstana Pro Team04:24:15  +  00:03:24=41,325 
114 CZEPetr VakocBELEtixx - Quick Step04:24:21  +  00:03:30=41,309 
115 FRACyril LemoineFRACofidis – Solutions Crédits04:24:38  +  00:03:47=41,265 
116 AUSMathew HaymanAUSORICA BikeExchange04:24:42  +  00:03:51=41,254 
117 AUSLuke DurbridgeAUSORICA BikeExchange04:24:42  +  00:03:51=41,254 
118 FRAAnthony DelaplaceFRAFortuneo - Vital Concept04:25:07  +  00:04:16=41,189 
119 FRAAmaël MoinardUSABMC Racing Team04:25:07  +  00:04:16=41,189 
120 FRAJérôme CoppelCHEIAM Cycling04:25:07  +  00:04:16=41,189 
121 FRAGeoffrey SoupeFRACofidis – Solutions Crédits04:25:07  +  00:04:16=41,189 
122 COLWinner AnaconaESPMovistar Team04:25:37  +  00:04:46=41,112 
123 NLDBert-Jan LindemanNLDTeam Lotto NL - Jumbo04:25:37  +  00:04:46=41,112 
124 DEUMarcus BurghardtUSABMC Racing Team04:25:37  +  00:04:46=41,112 
125 NLDRoy CurversDEUTeam Giant Alpecin04:25:37  +  00:04:46=41,112 
126 FRAJérôme CousinFRACofidis – Solutions Crédits04:25:37  +  00:04:46=41,112 
127 ITAMatteo BonoITALampre-Merida04:25:37  +  00:04:46=41,112 
128 DEUTony MartinBELEtixx - Quick Step04:25:37  +  00:04:46=41,112 
129 ESPDaniel NavarroFRACofidis – Solutions Crédits04:25:37  +  00:04:46=41,112 
130 BELJens DebusschereBELLotto Soudal04:25:37  +  00:04:46=41,112 
131 NORAlexander KristoffRUSTeam Katusha04:25:37  +  00:04:46=41,112 
132 ESPAngel ViciosoRUSTeam Katusha04:26:36  +  00:05:45=40,960 
133 NORVegard BreenFRAFortuneo - Vital Concept04:26:44  +  00:05:53=40,940 
134 CHEMichael SchärUSABMC Racing Team04:26:47  +  00:05:56=40,932 
135 USABrent BookwalterUSABMC Racing Team04:26:47  +  00:05:56=40,932 
136 BELThomas De GendtBELLotto Soudal04:27:06  +  00:06:15=40,884 
137 DEURobert WagnerNLDTeam Lotto NL - Jumbo04:27:42  +  00:06:51=40,792 
138 DEUJohn DegenkolbDEUTeam Giant Alpecin04:27:42  +  00:06:51=40,792 
139 NLDRamon SinkeldamDEUTeam Giant Alpecin04:27:42  +  00:06:51=40,792 
140 NLDAlbert TimmerDEUTeam Giant Alpecin04:27:42  +  00:06:51=40,792 
141 FRACédric PineauFRAFDJ04:27:42  +  00:06:51=40,792 
142 FRAJérémy RoyFRAFDJ04:27:42  +  00:06:51=40,792 
143 ETHTsgabu Gebremaryan GrmayITALampre-Merida04:27:42  +  00:06:51=40,792 
144 SVNKristjan KorenUSATeam Cannondale Drapac04:27:42  +  00:06:51=40,792 
145 ITAFabio SabatiniBELEtixx - Quick Step04:27:42  +  00:06:51=40,792 
146 ITAMatteo TosattoRUSTinkoff04:27:42  +  00:06:51=40,792 
147 DEUMarcel KittelBELEtixx - Quick Step04:27:42  +  00:06:51=40,792 
148 AUTMarco HallerRUSTeam Katusha04:27:42  +  00:06:51=40,792 
149 BELIljo KeisseBELEtixx - Quick Step04:27:42  +  00:06:51=40,792 
150 AUSMark RenshawZAFDimension Data04:27:42  +  00:06:51=40,792 
151 AUSAdam HansenBELLotto Soudal04:27:42  +  00:06:51=40,792 
152 FRAFlorian VachonFRAFortuneo - Vital Concept04:27:42  +  00:06:51=40,792 
153 DNKChris Anker SørensenFRAFortuneo - Vital Concept04:27:42  +  00:06:51=40,792 
154 BELMaarten WynantsNLDTeam Lotto NL - Jumbo04:27:42  +  00:06:51=40,792 
155 ENGDaniel McLayFRAFortuneo - Vital Concept04:27:42  +  00:06:51=40,792 
156 NLDTimo RoosenNLDTeam Lotto NL - Jumbo04:27:42  +  00:06:51=40,792 
157 SVNBorut BozicFRACofidis – Solutions Crédits04:27:42  +  00:06:51=40,792 
158 HRVKristijan DurasekITALampre-Merida04:27:42  +  00:06:51=40,792 
159 CZEJan BártaDEUBora-Argon 1804:27:42  +  00:06:51=40,792 
160 CANAntoine DuchesneFRADirect Energie04:27:42  +  00:06:51=40,792 
161 POLBartosz HuzarskiDEUBora-Argon 1804:27:42  +  00:06:51=40,792 
162 ITAOscar GattoRUSTinkoff04:27:42  +  00:06:51=40,792 
163 NZLGeorge BennettNLDTeam Lotto NL - Jumbo04:27:42  +  00:06:51=40,792 
164 FRAThomas VoecklerFRADirect Energie04:27:42  +  00:06:51=40,792 
165 POLMaciej BodnarRUSTinkoff04:27:42  +  00:06:51=40,792 
166 JPNYukiya ArashiroITALampre-Merida04:27:42  +  00:06:51=40,792 
167 POLRafal MajkaRUSTinkoff04:27:42  +  00:06:51=40,792 
168 IRLChristopher Juul JensenAUSORICA BikeExchange04:27:42  +  00:06:51=40,792 
169 FRAYohann GèneFRADirect Energie04:27:42  +  00:06:51=40,792 
170 CHEMartin ElmigerCHEIAM Cycling04:29:06  +  00:08:15=40,580 
171 AUSLeigh HowardCHEIAM Cycling04:29:06  +  00:08:15=40,580 
172 FRAAdrien PetitFRADirect Energie04:29:06  +  00:08:15=40,580 
173 NZLGregory HendersonBELLotto Soudal04:29:06  +  00:08:15=40,580 
174 ITADavide CimolaiITALampre-Merida04:29:06  +  00:08:15=40,580 
175 AUSRohan DennisUSABMC Racing Team04:29:06  +  00:08:15=40,580 
176 DEUMarcel SiebergBELLotto Soudal04:29:06  +  00:08:15=40,580 
177 FRA Alexis GougeardFRAAg2r La Mondiale04:29:06  +  00:08:15=40,580 
178 DEUAndré GreipelBELLotto Soudal04:29:06  +  00:08:15=40,580 
179 NLDDylan Van BaarleUSATeam Cannondale Drapac04:29:06  +  00:08:15=40,580 
180 DEUAndreas SchillingerDEUBora-Argon 1804:29:06  +  00:08:15=40,580 
181 ITAJacopo GuarnieriRUSTeam Katusha04:29:06  +  00:08:15=40,580 
182 ESPRubén PlazaAUSORICA BikeExchange04:29:06  +  00:08:15=40,580 
183 NLDDylan GroenewegenNLDTeam Lotto NL - Jumbo04:29:06  +  00:08:15=40,580 
184 ESPImanol ErvitiESPMovistar Team04:29:06  +  00:08:15=40,580 
185 USAAlex HowesUSATeam Cannondale Drapac04:29:06  +  00:08:15=40,580 
186 ITADiego RosaKAZAstana Pro Team04:29:06  +  00:08:15=40,580 
187 KAZAlexey LutsenkoKAZAstana Pro Team04:29:06  +  00:08:15=40,580 
188 ERINatnael Teweldemedhin BerhaneZAFDimension Data04:29:06  +  00:08:15=40,580 
189 DNKLars BakBELLotto Soudal04:29:06  +  00:08:15=40,580 
190 ERIDaniel TeklehaimanotZAFDimension Data04:29:06  +  00:08:15=40,580 
191 ENGStephen CummingsZAFDimension Data04:29:06  +  00:08:15=40,580 
192 ENGIan StannardGBRSky Procycling04:29:06  +  00:08:15=40,580 
193 WALLuke RoweGBRSky Procycling04:29:06  +  00:08:15=40,580 
194 AUTBernhard EiselZAFDimension Data04:29:06  +  00:08:15=40,580 
195 ITACesare BenedettiDEUBora-Argon 1804:30:38  +  00:09:47=40,350 
196 NZLShane ArchboldDEUBora-Argon 1804:34:30  +  00:13:39=39,781 
197 DNKMichael MørkøvRUSTeam Katusha04:34:30  +  00:13:39=39,781 
198 BELSam BennettDEUBora-Argon 1804:37:14  +  00:16:23=39,389 


Todays birthdays.

1896  Georges Cuvelier
1909  Gaspard Rinaldi
1913  Erich Bautz
1913  Alexandre Pawlisiak
1916  Edmond De Lathouwer
1918  Prosper Depredomme
1929  Eluf Dalgaard
1933  Jean Graczyk
1942  Guy Seyve
1943  Henri Rabaute
1964  Jan Siemons
1966  Andrew Bishop
1975  Andrea Brognara
1984  Mikel Nieve